| time (UTC) | temp F | wind direction | speed MPH | gust MPH | rain 1hr in | rain 24hr in | rain mn in | humidity % | barometer mb |
| 20260510013405 | 32 | 22 | 1.0 | 3.0 | 0.00 | 0.00 | 0.00 | 87 | 1025.2 |
| 20260510012405 | 32 | 22 | 0.0 | 0.0 | 0.00 | 0.00 | 0.00 | 86 | 1025.3 |
| 20260510011406 | 32 | 22 | 0.0 | 2.0 | 0.00 | 0.00 | 0.00 | 85 | 1025.3 |
| 20260510010904 | 33 | 22 | 0.0 | 0.0 | 0.00 | 0.00 | 0.00 | 85 | 1025.4 |
| 20260510010404 | 33 | 22 | 0.0 | 0.0 | 0.00 | 0.00 | 0.00 | 85 | 1025.3 |
| 20260510005904 | 33 | 22 | 0.0 | 0.0 | 0.00 | 0.00 | 0.00 | 85 | 1025.4 |
| 20260510005404 | 33 | 22 | 0.0 | 2.0 | 0.00 | 0.00 | 0.00 | 84 | 1025.4 |
| 20260510004905 | 33 | 22 | 0.0 | 0.0 | 0.00 | 0.00 | 0.00 | 84 | 1025.4 |
| 20260510004404 | 33 | 22 | 0.0 | 2.0 | 0.00 | 0.00 | 0.00 | 84 | 1025.4 |
| 20260510003904 | 33 | 22 | 0.0 | 0.0 | 0.00 | 0.00 | 0.00 | 83 | 1025.3 |
| 20260510003405 | 34 | 22 | 0.0 | 0.0 | 0.00 | 0.00 | 0.00 | 83 | 1025.3 |
| 20260510002904 | 34 | 22 | 0.0 | 1.0 | 0.00 | 0.00 | 0.00 | 83 | 1025.4 |
| 20260510002405 | 34 | 22 | 0.0 | 2.0 | 0.00 | 0.00 | 0.00 | 82 | 1025.4 |
| 20260510001904 | 34 | 22 | 0.0 | 0.0 | 0.00 | 0.00 | 0.00 | 82 | 1025.6 |
| 20260510000905 | 35 | 22 | 0.0 | 0.0 | 0.00 | 0.00 | 0.00 | 81 | 1025.6 |
| 20260510000404 | 35 | 22 | 0.0 | 0.0 | 0.00 | 0.00 | 0.00 | 81 | 1025.7 |
| 20260509235904 | 35 | 22 | 0.0 | 1.0 | 0.00 | 0.00 | 0.00 | 81 | 1025.8 |
| 20260509235404 | 36 | 22 | 1.0 | 2.0 | 0.00 | 0.00 | 0.00 | 80 | 1025.7 |
| 20260509232905 | 37 | 22 | 0.0 | 0.0 | 0.00 | 0.00 | 0.00 | 77 | 1025.8 |
| 20260509231904 | 38 | 22 | 0.0 | 0.0 | 0.00 | 0.00 | 0.00 | 76 | 1025.8 |
| 20260509230904 | 38 | 22 | 0.0 | 0.0 | 0.00 | 0.00 | 0.00 | 75 | 1025.9 |
| 20260509230405 | 39 | 22 | 1.0 | 1.0 | 0.00 | 0.00 | 0.00 | 75 | 1025.8 |
| 20260509225905 | 39 | 22 | 0.0 | 0.0 | 0.00 | 0.00 | 0.00 | 75 | 1025.7 |
| 20260509225404 | 39 | 22 | 0.0 | 0.0 | 0.00 | 0.00 | 0.00 | 74 | 1025.7 |
| 20260509224405 | 39 | 22 | 0.0 | 0.0 | 0.00 | 0.00 | 0.00 | 73 | 1025.7 |
| 20260509223904 | 40 | 22 | 0.0 | 0.0 | 0.00 | 0.00 | 0.00 | 73 | 1025.6 |
| 20260509223404 | 40 | 22 | 0.0 | 0.0 | 0.00 | 0.00 | 0.00 | 73 | 1025.6 |
| 20260509222906 | 40 | 22 | 0.0 | 0.0 | 0.00 | 0.00 | 0.00 | 73 | 1025.6 |
| 20260509220905 | 41 | 22 | 0.0 | 0.0 | 0.00 | 0.00 | 0.00 | 70 | 1025.7 |
| 20260509215904 | 41 | 22 | 0.0 | 2.0 | 0.00 | 0.00 | 0.00 | 70 | 1025.8 |
| 20260509215405 | 41 | 22 | 0.0 | 3.0 | 0.00 | 0.00 | 0.00 | 69 | 1025.8 |
| 20260509214905 | 42 | 22 | 0.0 | 2.0 | 0.00 | 0.00 | 0.00 | 69 | 1025.8 |
| 20260509214404 | 42 | 22 | 0.0 | 0.0 | 0.00 | 0.00 | 0.00 | 68 | 1025.8 |
| 20260509213905 | 42 | 22 | 0.0 | 1.0 | 0.00 | 0.00 | 0.00 | 67 | 1025.8 |
| 20260509213404 | 42 | 22 | 0.0 | 2.0 | 0.00 | 0.00 | 0.00 | 67 | 1025.8 |
| 20260509212906 | 42 | 22 | 1.0 | 3.0 | 0.00 | 0.00 | 0.00 | 66 | 1025.8 |
| 20260509212405 | 42 | 22 | 0.0 | 2.0 | 0.00 | 0.00 | 0.00 | 67 | 1025.8 |
| 20260509211905 | 42 | 22 | 0.0 | 2.0 | 0.00 | 0.00 | 0.00 | 66 | 1025.7 |
| 20260509211404 | 42 | 22 | 0.0 | 3.0 | 0.00 | 0.00 | 0.00 | 67 | 1025.6 |
| 20260509210904 | 43 | 22 | 0.0 | 0.0 | 0.00 | 0.00 | 0.00 | 68 | 1025.6 |
| 20260509210403 | 43 | 22 | 0.0 | 3.0 | 0.00 | 0.00 | 0.00 | 65 | 1025.5 |
| 20260509205905 | 43 | 22 | 1.0 | 6.0 | 0.00 | 0.00 | 0.00 | 65 | 1025.6 |
| 20260509205406 | 43 | 22 | 1.0 | 2.0 | 0.00 | 0.00 | 0.00 | 65 | 1025.6 |
| 20260509204905 | 44 | 22 | 0.0 | 3.0 | 0.00 | 0.00 | 0.00 | 65 | 1025.6 |
| 20260509204405 | 44 | 22 | 0.0 | 0.0 | 0.00 | 0.00 | 0.00 | 65 | 1025.5 |
| 20260509203404 | 45 | 22 | 0.0 | 0.0 | 0.00 | 0.00 | 0.00 | 63 | 1025.5 |
| 20260509202904 | 46 | 22 | 0.0 | 0.0 | 0.00 | 0.00 | 0.00 | 63 | 1025.4 |
| 20260509201904 | 47 | 22 | 0.0 | 0.0 | 0.00 | 0.00 | 0.00 | 61 | 1025.2 |
| 20260509200404 | 48 | 22 | 0.0 | 1.0 | 0.00 | 0.00 | 0.00 | 59 | 1025.1 |
| 20260509194404 | 49 | 18 | 2.0 | 6.0 | 0.00 | 0.00 | 0.00 | 54 | 1024.9 |
| 20260509193904 | 50 | 17 | 1.0 | 3.0 | 0.00 | 0.00 | 0.00 | 54 | 1024.9 |
| 20260509193404 | 50 | 17 | 2.0 | 7.0 | 0.00 | 0.00 | 0.00 | 53 | 1024.8 |
| 20260509192905 | 51 | 348 | 0.0 | 3.0 | 0.00 | 0.00 | 0.00 | 52 | 1024.7 |
| 20260509192405 | 51 | 348 | 2.0 | 7.0 | 0.00 | 0.00 | 0.00 | 52 | 1024.7 |
| 20260509191905 | 52 | 23 | 2.0 | 7.0 | 0.00 | 0.00 | 0.00 | 52 | 1024.6 |
| 20260509191404 | 52 | 309 | 1.0 | 6.0 | 0.00 | 0.00 | 0.00 | 52 | 1024.6 |
| 20260509190904 | 52 | 309 | 1.0 | 7.0 | 0.00 | 0.00 | 0.00 | 50 | 1024.6 |
| 20260509190404 | 53 | 292 | 1.0 | 5.0 | 0.00 | 0.00 | 0.00 | 50 | 1024.6 |
| 20260509185905 | 53 | 288 | 1.0 | 3.0 | 0.00 | 0.00 | 0.00 | 51 | 1024.4 |
| 20260509185405 | 53 | 287 | 2.0 | 8.0 | 0.00 | 0.00 | 0.00 | 49 | 1024.4 |
| 20260509184403 | 54 | 6 | 2.0 | 8.0 | 0.00 | 0.00 | 0.00 | 48 | 1024.1 |
| 20260509183904 | 54 | 325 | 2.0 | 5.0 | 0.00 | 0.00 | 0.00 | 47 | 1024.1 |
| 20260509183404 | 54 | 348 | 2.0 | 6.0 | 0.00 | 0.00 | 0.00 | 47 | 1024.1 |
| 20260509182904 | 55 | 345 | 1.0 | 6.0 | 0.00 | 0.00 | 0.00 | 47 | 1024.0 |
| 20260509182404 | 55 | 6 | 1.0 | 6.0 | 0.00 | 0.00 | 0.00 | 46 | 1023.9 |
| 20260509181905 | 55 | 24 | 1.0 | 3.0 | 0.00 | 0.00 | 0.00 | 45 | 1024.0 |
| 20260509181404 | 55 | 28 | 1.0 | 6.0 | 0.00 | 0.00 | 0.00 | 44 | 1024.0 |
| 20260509180905 | 55 | 342 | 2.0 | 8.0 | 0.00 | 0.00 | 0.00 | 45 | 1023.9 |
| 20260509180405 | 56 | 36 | 1.0 | 6.0 | 0.00 | 0.00 | 0.00 | 45 | 1023.8 |
| 20260509175405 | 56 | 5 | 3.0 | 7.0 | 0.00 | 0.00 | 0.00 | 42 | 1023.8 |
| 20260509174905 | 56 | 2 | 1.0 | 7.0 | 0.00 | 0.00 | 0.00 | 45 | 1023.7 |
| 20260509174406 | 56 | 0 | 3.0 | 6.0 | 0.00 | 0.00 | 0.00 | 43 | 1023.6 |
| 20260509173905 | 55 | 341 | 3.0 | 8.0 | 0.00 | 0.00 | 0.00 | 44 | 1023.6 |
| 20260509173404 | 55 | 27 | 5.0 | 8.0 | 0.00 | 0.00 | 0.00 | 43 | 1023.7 |
| 20260509172403 | 55 | 349 | 5.0 | 9.0 | 0.00 | 0.00 | 0.00 | 45 | 1023.6 |
| 20260509171406 | 53 | 47 | 2.0 | 9.0 | 0.00 | 0.00 | 0.00 | 49 | 1023.6 |
| 20260509170904 | 53 | 44 | 1.0 | 7.0 | 0.00 | 0.00 | 0.00 | 49 | 1023.6 |
| 20260509170404 | 53 | 26 | 2.0 | 8.0 | 0.00 | 0.00 | 0.00 | 49 | 1023.5 |
| 20260509165904 | 53 | 30 | 3.0 | 8.0 | 0.00 | 0.00 | 0.00 | 49 | 1023.5 |
| 20260509165404 | 53 | 15 | 4.0 | 9.0 | 0.00 | 0.00 | 0.00 | 48 | 1023.5 |
| 20260509164904 | 54 | 32 | 2.0 | 7.0 | 0.00 | 0.00 | 0.00 | 50 | 1023.6 |
| 20260509163905 | 54 | 14 | 3.0 | 6.0 | 0.00 | 0.00 | 0.00 | 48 | 1023.6 |
| 20260509163403 | 55 | 10 | 1.0 | 8.0 | 0.00 | 0.00 | 0.00 | 49 | 1023.6 |
| 20260509162906 | 55 | 8 | 2.0 | 8.0 | 0.00 | 0.00 | 0.00 | 47 | 1023.6 |
| 20260509162404 | 56 | 5 | 3.0 | 10.0 | 0.00 | 0.00 | 0.00 | 45 | 1023.6 |
| 20260509161904 | 58 | 19 | 6.0 | 12.0 | 0.00 | 0.00 | 0.00 | 44 | 1023.5 |
| 20260509161403 | 58 | 18 | 3.0 | 12.0 | 0.00 | 0.00 | 0.00 | 47 | 1023.4 |
| 20260509160904 | 58 | 23 | 4.0 | 10.0 | 0.00 | 0.00 | 0.00 | 46 | 1023.4 |
| 20260509155905 | 58 | 14 | 5.0 | 12.0 | 0.00 | 0.00 | 0.00 | 46 | 1023.4 |
| 20260509155404 | 58 | 12 | 5.0 | 15.0 | 0.00 | 0.00 | 0.00 | 46 | 1023.4 |
| 20260509154904 | 58 | 17 | 2.0 | 6.0 | 0.00 | 0.00 | 0.00 | 45 | 1023.4 |
| 20260509154404 | 58 | 24 | 2.0 | 8.0 | 0.00 | 0.00 | 0.00 | 44 | 1023.4 |
| 20260509153905 | 58 | 13 | 2.0 | 6.0 | 0.00 | 0.00 | 0.00 | 45 | 1023.4 |
| 20260509153405 | 58 | 12 | 3.0 | 9.0 | 0.00 | 0.00 | 0.00 | 42 | 1023.4 |
| 20260509152905 | 58 | 355 | 4.0 | 8.0 | 0.00 | 0.00 | 0.00 | 43 | 1023.3 |
| 20260509152404 | 58 | 26 | 3.0 | 7.0 | 0.00 | 0.00 | 0.00 | 44 | 1023.4 |
| 20260509151905 | 58 | 355 | 2.0 | 8.0 | 0.00 | 0.00 | 0.00 | 45 | 1023.4 |
| 20260509151404 | 57 | 15 | 5.0 | 12.0 | 0.00 | 0.00 | 0.00 | 43 | 1023.4 |
| 20260509150904 | 57 | 10 | 2.0 | 7.0 | 0.00 | 0.00 | 0.00 | 44 | 1023.4 |
| 20260509145404 | 57 | 20 | 3.0 | 9.0 | 0.00 | 0.00 | 0.00 | 47 | 1023.5 |
| 20260509144904 | 57 | 0 | 3.0 | 9.0 | 0.00 | 0.00 | 0.00 | 47 | 1023.5 |
| 20260509144404 | 57 | 354 | 3.0 | 9.0 | 0.00 | 0.00 | 0.00 | 45 | 1023.6 |
| 20260509143906 | 57 | 18 | 3.0 | 7.0 | 0.00 | 0.00 | 0.00 | 48 | 1023.5 |
| 20260509143406 | 57 | 23 | 3.0 | 8.0 | 0.00 | 0.00 | 0.00 | 46 | 1023.5 |
| 20260509142905 | 56 | 44 | 3.0 | 10.0 | 0.00 | 0.00 | 0.00 | 48 | 1023.5 |
| 20260509142405 | 56 | 8 | 5.0 | 9.0 | 0.00 | 0.00 | 0.00 | 49 | 1023.5 |
| 20260509141906 | 55 | 24 | 6.0 | 10.0 | 0.00 | 0.00 | 0.00 | 50 | 1023.6 |
| 20260509141406 | 55 | 25 | 2.0 | 7.0 | 0.00 | 0.00 | 0.00 | 50 | 1023.5 |
| 20260509140405 | 56 | 5 | 3.0 | 9.0 | 0.00 | 0.00 | 0.00 | 49 | 1023.6 |
| 20260509135905 | 56 | 347 | 5.0 | 9.0 | 0.00 | 0.00 | 0.00 | 46 | 1023.7 |
| 20260509135405 | 57 | 28 | 1.0 | 6.0 | 0.00 | 0.00 | 0.00 | 49 | 1023.6 |
| 20260509134906 | 57 | 34 | 2.0 | 5.0 | 0.00 | 0.00 | 0.00 | 47 | 1023.7 |
| 20260509134407 | 58 | 11 | 3.0 | 12.0 | 0.00 | 0.00 | 0.00 | 46 | 1023.8 |
| 20260509133905 | 58 | 353 | 5.0 | 10.0 | 0.00 | 0.00 | 0.00 | 46 | 1023.8 |
| 20260509133406 | 57 | 23 | 5.0 | 13.0 | 0.00 | 0.00 | 0.00 | 45 | 1023.8 |
| 20260509132906 | 57 | 348 | 5.0 | 12.0 | 0.00 | 0.00 | 0.00 | 45 | 1023.8 |
| 20260509131905 | 57 | 4 | 3.0 | 8.0 | 0.00 | 0.00 | 0.00 | 40 | 1023.7 |
| 20260509131406 | 57 | 355 | 2.0 | 8.0 | 0.00 | 0.00 | 0.00 | 42 | 1023.8 |
| 20260509130905 | 57 | 269 | 1.0 | 7.0 | 0.00 | 0.00 | 0.00 | 41 | 1023.8 |
| 20260509130405 | 58 | 5 | 1.0 | 3.0 | 0.00 | 0.00 | 0.00 | 42 | 1023.8 |
| 20260509125905 | 58 | 0 | 2.0 | 3.0 | 0.00 | 0.00 | 0.00 | 44 | 1023.8 |
| 20260509125405 | 58 | 342 | 3.0 | 8.0 | 0.00 | 0.00 | 0.00 | 42 | 1023.8 |
| 20260509124907 | 58 | 34 | 3.0 | 7.0 | 0.00 | 0.00 | 0.00 | 43 | 1023.9 |
| 20260509123406 | 57 | 353 | 5.0 | 10.0 | 0.00 | 0.00 | 0.00 | 46 | 1024.0 |
| 20260509122905 | 57 | 7 | 2.0 | 7.0 | 0.00 | 0.00 | 0.00 | 46 | 1024.0 |
| 20260509122406 | 56 | 331 | 3.0 | 7.0 | 0.00 | 0.00 | 0.00 | 46 | 1024.0 |
| 20260509121406 | 56 | 355 | 2.0 | 5.0 | 0.00 | 0.00 | 0.00 | 46 | 1024.1 |
| 20260509120405 | 55 | 344 | 5.0 | 10.0 | 0.00 | 0.00 | 0.00 | 49 | 1024.1 |
| 20260509115906 | 55 | 5 | 3.0 | 9.0 | 0.00 | 0.00 | 0.00 | 50 | 1024.1 |
| 20260509115406 | 55 | 18 | 6.0 | 12.0 | 0.00 | 0.00 | 0.00 | 48 | 1024.0 |
| 20260509114906 | 55 | 15 | 3.0 | 10.0 | 0.00 | 0.00 | 0.00 | 49 | 1024.1 |
| 20260509114406 | 55 | 33 | 4.0 | 8.0 | 0.00 | 0.00 | 0.00 | 50 | 1024.1 |
| 20260509113905 | 55 | 4 | 3.0 | 8.0 | 0.00 | 0.00 | 0.00 | 49 | 1024.2 |
| 20260509113406 | 54 | 13 | 1.0 | 10.0 | 0.00 | 0.00 | 0.00 | 49 | 1024.1 |
| 20260509112905 | 54 | 355 | 5.0 | 12.0 | 0.00 | 0.01 | 0.00 | 50 | 1024.3 |
| 20260509112405 | 53 | 271 | 3.0 | 8.0 | 0.00 | 0.01 | 0.00 | 53 | 1024.3 |
| 20260509111905 | 52 | 315 | 3.0 | 7.0 | 0.00 | 0.02 | 0.00 | 54 | 1024.3 |
| 20260509105905 | 54 | 347 | 5.0 | 12.0 | 0.00 | 0.02 | 0.00 | 51 | 1024.5 |
| 20260509105406 | 54 | 339 | 4.0 | 10.0 | 0.00 | 0.02 | 0.00 | 51 | 1024.4 |
| 20260509104907 | 54 | 16 | 1.0 | 7.0 | 0.00 | 0.03 | 0.00 | 50 | 1024.4 |
| 20260509103407 | 51 | 24 | 2.0 | 5.0 | 0.00 | 0.03 | 0.00 | 56 | 1024.5 |
| 20260509102905 | 51 | 24 | 1.0 | 5.0 | 0.00 | 0.03 | 0.00 | 53 | 1024.5 |
| 20260509101905 | 51 | 23 | 1.0 | 3.0 | 0.00 | 0.03 | 0.00 | 59 | 1024.5 |
| 20260509101406 | 50 | 23 | 0.0 | 3.0 | 0.00 | 0.03 | 0.00 | 58 | 1024.5 |
| 20260509100906 | 50 | 23 | 1.0 | 6.0 | 0.00 | 0.03 | 0.00 | 60 | 1024.5 |
| 20260509100405 | 49 | 17 | 2.0 | 6.0 | 0.00 | 0.03 | 0.00 | 61 | 1024.5 |
| 20260509095405 | 49 | 14 | 1.0 | 6.0 | 0.00 | 0.03 | 0.00 | 60 | 1024.4 |
| 20260509094405 | 49 | 14 | 0.0 | 6.0 | 0.00 | 0.03 | 0.00 | 62 | 1024.4 |
| 20260509093906 | 49 | 33 | 3.0 | 6.0 | 0.00 | 0.03 | 0.00 | 60 | 1024.4 |
| 20260509092905 | 49 | 39 | 3.0 | 8.0 | 0.00 | 0.03 | 0.00 | 62 | 1024.4 |
| 20260509092405 | 49 | 5 | 4.0 | 7.0 | 0.00 | 0.03 | 0.00 | 63 | 1024.4 |
| 20260509091405 | 49 | 32 | 4.0 | 8.0 | 0.00 | 0.03 | 0.00 | 64 | 1024.4 |
| 20260509090905 | 48 | 9 | 3.0 | 9.0 | 0.00 | 0.03 | 0.00 | 64 | 1024.4 |
| 20260509090405 | 48 | 5 | 4.0 | 8.0 | 0.00 | 0.03 | 0.00 | 65 | 1024.6 |
| 20260509085905 | 48 | 349 | 0.0 | 7.0 | 0.00 | 0.03 | 0.00 | 68 | 1024.5 |
| 20260509085405 | 48 | 31 | 3.0 | 8.0 | 0.00 | 0.03 | 0.00 | 67 | 1024.5 |
| 20260509084906 | 47 | 26 | 2.0 | 7.0 | 0.00 | 0.03 | 0.00 | 70 | 1024.4 |
| 20260509084406 | 47 | 359 | 3.0 | 8.0 | 0.00 | 0.03 | 0.00 | 70 | 1024.5 |
| 20260509083906 | 47 | 45 | 3.0 | 9.0 | 0.00 | 0.03 | 0.00 | 70 | 1024.5 |
| 20260509083406 | 46 | 358 | 4.0 | 9.0 | 0.00 | 0.03 | 0.00 | 72 | 1024.4 |
| 20260509082905 | 46 | 355 | 3.0 | 7.0 | 0.00 | 0.03 | 0.00 | 74 | 1024.3 |
| 20260509082405 | 46 | 1 | 3.0 | 8.0 | 0.00 | 0.03 | 0.00 | 73 | 1024.3 |
| 20260509081907 | 45 | 13 | 3.0 | 10.0 | 0.00 | 0.03 | 0.00 | 75 | 1024.3 |
| 20260509081406 | 45 | 25 | 3.0 | 8.0 | 0.00 | 0.03 | 0.00 | 76 | 1024.3 |
| 20260509080905 | 45 | 354 | 4.0 | 12.0 | 0.00 | 0.03 | 0.00 | 78 | 1024.2 |
| 20260509075904 | 44 | 341 | 5.0 | 9.0 | 0.00 | 0.03 | 0.00 | 82 | 1024.3 |
| 20260509075404 | 43 | 17 | 2.0 | 6.0 | 0.00 | 0.03 | 0.00 | 85 | 1024.3 |
| 20260509074905 | 43 | 40 | 3.0 | 7.0 | 0.00 | 0.03 | 0.00 | 86 | 1024.4 |
| 20260509074406 | 42 | 30 | 3.0 | 8.0 | 0.00 | 0.03 | 0.00 | 89 | 1024.4 |
| 20260509073905 | 42 | 203 | 2.0 | 6.0 | 0.00 | 0.03 | 0.00 | 91 | 1024.3 |
| 20260509073404 | 41 | 196 | 1.0 | 6.0 | 0.00 | 0.03 | 0.00 | 92 | 1024.3 |
| 20260509072905 | 40 | 196 | 1.0 | 3.0 | 0.00 | 0.03 | 0.00 | 94 | 1024.3 |
| 20260509071904 | 39 | 196 | 1.0 | 3.0 | 0.00 | 0.03 | 0.00 | 95 | 1024.4 |
| 20260509071405 | 39 | 196 | 1.0 | 3.0 | 0.00 | 0.03 | 0.00 | 95 | 1024.3 |
| 20260509070904 | 38 | 198 | 0.0 | 2.0 | 0.00 | 0.03 | 0.00 | 95 | 1024.3 |
| 20260509070405 | 38 | 198 | 0.0 | 3.0 | 0.00 | 0.03 | 0.00 | 95 | 1024.3 |
| 20260509065906 | 37 | 198 | 1.0 | 3.0 | 0.00 | 0.03 | 0.00 | 95 | 1024.3 |
| 20260509065405 | 37 | 198 | 0.0 | 2.0 | 0.00 | 0.03 | 0.00 | 95 | 1024.3 |
| 20260509064405 | 36 | 198 | 0.0 | 0.0 | 0.00 | 0.03 | 0.00 | 95 | 1024.4 |
| 20260509063905 | 35 | 198 | 0.0 | 0.0 | 0.00 | 0.03 | 0.00 | 95 | 1024.3 |
| 20260509063406 | 35 | 198 | 0.0 | 0.0 | 0.00 | 0.03 | 0.00 | 95 | 1024.4 |
| 20260509062905 | 34 | 198 | 0.0 | 0.0 | 0.00 | 0.03 | 0.00 | 95 | 1024.4 |
| 20260509062406 | 34 | 198 | 0.0 | 0.0 | 0.00 | 0.03 | 0.00 | 95 | 1024.4 |
| 20260509061906 | 33 | 198 | 0.0 | 0.0 | 0.00 | 0.04 | 0.00 | 94 | 1024.3 |
| 20260509061406 | 33 | 198 | 0.0 | 0.0 | 0.00 | 0.04 | 0.00 | 94 | 1024.3 |
| 20260509060905 | 33 | 198 | 0.0 | 0.0 | 0.00 | 0.04 | 0.00 | 94 | 1024.2 |
| 20260509060405 | 33 | 198 | 0.0 | 0.0 | 0.00 | 0.04 | 0.00 | 94 | 1024.2 |
| 20260509055904 | 32 | 198 | 0.0 | 0.0 | 0.00 | 0.04 | 0.00 | 94 | 1024.2 |
| 20260509055405 | 32 | 198 | 0.0 | 0.0 | 0.00 | 0.04 | 0.00 | 94 | 1024.1 |
| 20260509054905 | 32 | 198 | 0.0 | 0.0 | 0.00 | 0.04 | 0.00 | 94 | 1024.0 |
| 20260509053905 | 32 | 198 | 0.0 | 1.0 | 0.00 | 0.04 | 0.00 | 94 | 1023.9 |
| 20260509053404 | 32 | 236 | 0.0 | 0.0 | 0.00 | 0.04 | 0.00 | 94 | 1023.9 |
| 20260509052904 | 32 | 236 | 0.0 | 0.0 | 0.00 | 0.04 | 0.00 | 94 | 1023.9 |
| 20260509052405 | 32 | 236 | 0.0 | 0.0 | 0.00 | 0.04 | 0.00 | 93 | 1023.8 |
| 20260509051906 | 32 | 236 | 0.0 | 0.0 | 0.00 | 0.04 | 0.00 | 93 | 1023.8 |
| 20260509051405 | 31 | 236 | 0.0 | 0.0 | 0.00 | 0.04 | 0.00 | 93 | 1023.8 |
| 20260509050904 | 31 | 236 | 0.0 | 0.0 | 0.00 | 0.04 | 0.00 | 93 | 1023.7 |
| 20260509050406 | 31 | 236 | 0.0 | 0.0 | 0.00 | 0.04 | 0.00 | 93 | 1023.7 |
| 20260509045904 | 31 | 236 | 0.0 | 0.0 | 0.00 | 0.04 | 0.00 | 93 | 1023.6 |
| 20260509043904 | 31 | 236 | 0.0 | 0.0 | 0.00 | 0.04 | 0.00 | 92 | 1023.6 |
| 20260509043404 | 31 | 236 | 0.0 | 0.0 | 0.00 | 0.04 | 0.00 | 92 | 1023.6 |
| 20260509042906 | 31 | 236 | 0.0 | 0.0 | 0.00 | 0.04 | 0.00 | 92 | 1023.5 |
| 20260509042405 | 32 | 236 | 0.0 | 0.0 | 0.00 | 0.04 | 0.00 | 92 | 1023.4 |
| 20260509041405 | 32 | 236 | 0.0 | 0.0 | 0.00 | 0.04 | 0.00 | 92 | 1023.3 |
| 20260509040905 | 32 | 236 | 0.0 | 0.0 | 0.00 | 0.04 | 0.00 | 92 | 1023.3 |
| 20260509040404 | 32 | 236 | 0.0 | 0.0 | 0.00 | 0.04 | 0.00 | 92 | 1023.3 |
| 20260509035906 | 32 | 236 | 0.0 | 0.0 | 0.00 | 0.04 | 0.00 | 92 | 1023.3 |
| 20260509035405 | 32 | 236 | 0.0 | 0.0 | 0.00 | 0.04 | 0.00 | 92 | 1023.2 |
| 20260509034905 | 32 | 236 | 0.0 | 0.0 | 0.00 | 0.04 | 0.00 | 92 | 1023.3 |
| 20260509034404 | 32 | 236 | 0.0 | 0.0 | 0.00 | 0.04 | 0.00 | 92 | 1023.3 |
| 20260509033905 | 32 | 236 | 0.0 | 1.0 | 0.00 | 0.04 | 0.00 | 92 | 1023.3 |
| 20260509033405 | 32 | 123 | 0.0 | 0.0 | 0.00 | 0.04 | 0.00 | 92 | 1023.3 |
| 20260509032404 | 33 | 34 | 0.0 | 0.0 | 0.00 | 0.04 | 0.00 | 92 | 1023.0 |
| 20260509031905 | 33 | 34 | 0.0 | 0.0 | 0.00 | 0.04 | 0.00 | 91 | 1023.0 |
| 20260509031405 | 33 | 34 | 0.0 | 0.0 | 0.00 | 0.04 | 0.00 | 91 | 1022.9 |
| 20260509030905 | 33 | 34 | 0.0 | 0.0 | 0.00 | 0.04 | 0.00 | 91 | 1022.9 |
| 20260509030406 | 33 | 34 | 0.0 | 0.0 | 0.00 | 0.04 | 0.00 | 91 | 1022.9 |
| 20260509025905 | 33 | 34 | 0.0 | 0.0 | 0.00 | 0.04 | 0.00 | 91 | 1022.8 |
| 20260509024905 | 33 | 34 | 0.0 | 0.0 | 0.00 | 0.04 | 0.00 | 91 | 1022.9 |
| 20260509024405 | 33 | 34 | 0.0 | 0.0 | 0.00 | 0.04 | 0.00 | 91 | 1022.8 |
| 20260509023906 | 33 | 34 | 0.0 | 0.0 | 0.00 | 0.04 | 0.00 | 91 | 1022.7 |
| 20260509023404 | 34 | 34 | 0.0 | 0.0 | 0.00 | 0.04 | 0.00 | 90 | 1022.7 |
| 20260509022905 | 34 | 34 | 0.0 | 0.0 | 0.00 | 0.04 | 0.00 | 91 | 1022.7 |
| 20260509021405 | 34 | 34 | 0.0 | 0.0 | 0.00 | 0.04 | 0.00 | 91 | 1022.8 |
| 20260509020904 | 34 | 34 | 0.0 | 0.0 | 0.00 | 0.04 | 0.00 | 91 | 1022.9 |
| 20260509020406 | 34 | 34 | 0.0 | 0.0 | 0.00 | 0.04 | 0.00 | 91 | 1022.7 |
| 20260509015906 | 35 | 34 | 0.0 | 0.0 | 0.00 | 0.04 | 0.00 | 90 | 1022.8 |
| 20260509015405 | 35 | 34 | 0.0 | 0.0 | 0.00 | 0.04 | 0.00 | 90 | 1022.8 |
| 20260509014905 | 35 | 34 | 0.0 | 0.0 | 0.00 | 0.04 | 0.00 | 91 | 1022.8 |
| 20260509014405 | 35 | 34 | 0.0 | 0.0 | 0.00 | 0.04 | 0.00 | 91 | 1022.8 |